User: anonymous   Login
Location: Unspecified
(0.0000°N, 0.0000°E)
Time: 00:41:05
(UTC+00:00)
Language:

OBJECT BW - Orbit

View from above orbital plane
View from above orbital plane
View from above satellite
View from above satellite

Ground track
Ground track

The orbit data is extracted from the following two-line orbital elements,

1 42016U 17008BW  17206.60805517 +.00001268 +00000-0 +56805-4 0  9992
2 42016 097.4928 267.9847 0008334 088.1742 272.0449 15.23079464024314
Epoch (UTC): 25 July 2017 14:35:35
Eccentricity: 0.0008334
inclination: 97.4928°
perigee height: 491 km
apogee height: 502 km
right ascension of ascending node: 267.9847°
argument of perigee: 88.1742°
revolutions per day: 15.23079464
mean anomaly at epoch: 272.0449°
orbit number at epoch: 2431

The dashed part of the orbit path shows where the satellite is in the earth's shadow,  

DLR